Flag for Russia Weather past 2 weeks in Nizhny Novgorod, Russia

Now
68 °F

Sunny.


Feels Like: 68 °F
Forecast: 66 / 88 °F
Wind: No wind

Location: Nizhny Novgorod/Strigino

Current Time: May 27, 2015 at 9:44:37 PM

Latest Report: May 27, 2015 at 9:00 PM


Visibility: 10 mi

Pressure: 29.86 "Hg

Humidity: 60%

Dew point: 54 °F

Location of Nizhny NovgorodLocation

Historic Weather in Nizhny Novgorod — Graph

°F

Nizhny Novgorod temperature yesterday

Maximum temperature yesterday: 77 °F (at 3:00 PM)
Minimum temperature yesterday: 41 °F (at 1:00 AM)
Average temperature yesterday: 64 °F

Past Weeks' High & Low Weather Summary

 TemperatureHumidityPressure
High86 °F (May 27, 12:30 PM)100% (May 15, 12:30 AM)30.12 "Hg (May 15, 12:30 AM)
Low37 °F (May 17, 1:30 AM)20% (May 27, 2:30 PM)29.21 "Hg (May 18, 2:30 AM)
Average59 °F68%29.81 "Hg
* Reported May 12 8:00 PM — May 27 8:30 PM, Nizhny Novgorod, Weather by CustomWeather, © 2015

Note: Actual official high and low records may vary slightly from our data, if they occured in-between our weather recording intervals... More about our weather records

Advertising

Nizhny Novgorod weather history for previous 24 hours

 ConditionsComfort  
Time TempWeatherWind HumidityBarometerVisibility
8:30 PM
Wed, May 27
68 °FSunny.No wind64%29.86 "Hg10 mi
8:00 PM75 °FPassing clouds.3 mph47%29.86 "HgN/A
7:30 PM72 °FSunny.1 mph57%29.86 "Hg10 mi
7:00 PM75 °FScattered clouds.1 mph50%29.86 "HgN/A
6:30 PM81 °FScattered clouds.No wind39%29.86 "HgN/A
6:00 PM79 °FScattered clouds.3 mph39%29.86 "HgN/A
5:30 PM82 °FPartly sunny.3 mph30%29.86 "HgN/A
5:00 PM82 °FPartly sunny.3 mph32%29.89 "HgN/A
4:30 PM84 °FPartly sunny.6 mph27%29.89 "HgN/A
4:00 PM82 °FPartly sunny.3 mph30%29.89 "HgN/A
3:30 PM82 °FPartly sunny.6 mph28%29.89 "HgN/A
3:00 PM82 °FScattered clouds.8 mph26%29.89 "HgN/A
2:30 PM86 °FPassing clouds.8 mph20%29.92 "HgN/A
2:00 PM86 °FPassing clouds.10 mph24%29.92 "HgN/A
1:30 PM86 °FPassing clouds.13 mph24%29.92 "HgN/A
1:00 PM86 °FPassing clouds.15 mph24%29.92 "HgN/A
12:30 PM86 °FPassing clouds.8 mph27%29.92 "HgN/A
12:00 PM84 °FPassing clouds.8 mph27%29.92 "HgN/A
11:30 AM84 °FPassing clouds.6 mph29%29.92 "HgN/A
11:00 AM82 °FSunny.8 mph32%29.95 "Hg10 mi
10:30 AM82 °FSunny.6 mph37%29.95 "Hg10 mi
10:00 AM81 °FPassing clouds.3 mph37%29.95 "HgN/A
9:30 AM79 °FSunny.6 mph42%29.95 "Hg10 mi
9:00 AM77 °FSunny.6 mph44%29.95 "Hg10 mi
8:30 AM73 °FSunny.3 mph50%29.95 "Hg10 mi
8:00 AM72 °FSunny.6 mph53%29.95 "Hg10 mi
7:30 AM70 °FSunny.6 mph53%29.95 "Hg10 mi
7:00 AM68 °FSunny.6 mph56%29.95 "Hg10 mi
6:30 AM66 °FSunny.3 mph60%29.95 "Hg10 mi
6:00 AM64 °FSunny.3 mph64%29.95 "Hg10 mi
5:30 AM63 °FSunny.3 mph73%29.95 "Hg10 mi
5:00 AM61 °FSunny.No wind77%29.95 "Hg10 mi
4:30 AM61 °FFog.No wind72%29.95 "Hg6 mi
4:00 AM55 °FFog.No wind94%29.95 "Hg5 mi
3:30 AM57 °FClear.No wind88%29.95 "Hg6 mi
3:00 AM59 °FClear.No wind82%29.95 "Hg10 mi
2:30 AM59 °FClear.No wind82%29.95 "Hg6 mi
2:00 AM59 °FClear.No wind82%29.95 "Hg10 mi
1:30 AM61 °FClear.1 mph83%29.95 "Hg10 mi
1:00 AM59 °FClear.1 mph88%29.95 "Hg10 mi
12:30 AM61 °FClear.3 mph83%29.95 "Hg10 mi
11:30 PM
Tue, May 26
66 °FClear.3 mph68%29.98 "Hg10 mi
11:00 PM66 °FClear.3 mph68%29.98 "Hg10 mi
10:30 PM68 °FClear.3 mph64%29.98 "Hg10 mi
10:00 PM70 °FClear.3 mph60%29.98 "Hg10 mi
9:30 PM70 °FClear.3 mph60%29.98 "Hg10 mi
9:00 PM72 °FSunny.3 mph57%29.98 "Hg10 mi
Weather by CustomWeather, © 2015

See weather overviewHow to use our weather pages